W4IFI Weather Reports


Display with metric or nautical units.
time (UTC)temp
F
wind
direction
speed
MPH
gust
MPH
rain 1hr
in
rain 24hr
in
rain mn
in
humidity
%
barometer
mb
20171022041231 54 0 0.0 0.0 0.00 0.00 0.00 80 1028.6
20171022040331 54 0 0.0 0.0 0.00 0.00 0.00 79 1028.7
20171022035431 55 0 0.0 0.0 0.00 0.00 0.00 78 1028.7
20171022034531 55 0 0.0 0.0 0.00 0.00 0.00 75 1028.7
20171022033631 55 0 0.0 0.0 0.00 0.00 0.00 74 1028.7
20171022032731 55 0 0.0 0.0 0.00 0.00 0.00 74 1028.8
20171022031831 55 0 0.0 0.0 0.00 0.00 0.00 75 1028.8
20171022030931 55 0 0.0 0.0 0.00 0.00 0.00 79 1028.9
20171022030031 55 0 0.0 0.0 0.00 0.00 0.00 76 1028.9
20171022025131 56 0 0.0 0.0 0.00 0.00 0.00 76 1029.1
20171022024231 56 0 0.0 0.0 0.00 0.00 0.00 76 1029.0
20171022023331 56 0 0.0 0.0 0.00 0.00 0.00 77 1029.0
20171022022431 56 0 0.0 0.0 0.00 0.00 0.00 77 1028.9
20171022021531 56 0 0.0 0.0 0.00 0.00 0.00 77 1029.0
20171022020631 56 0 0.0 0.0 0.00 0.00 0.00 77 1029.0
20171022015731 57 0 0.0 0.0 0.00 0.00 0.00 73 1028.9
20171022014831 57 0 0.0 0.0 0.00 0.00 0.00 73 1028.8
20171022013931 57 0 0.0 0.0 0.00 0.00 0.00 71 1028.9
20171022013031 57 0 0.0 0.0 0.00 0.00 0.00 72 1028.8
20171022012131 58 0 0.0 0.0 0.00 0.00 0.00 70 1028.8
20171022011231 58 0 0.0 0.0 0.00 0.00 0.00 71 1028.7
20171022010331 58 0 0.0 0.0 0.00 0.00 0.00 72 1028.7
20171022005436 59 0 0.0 0.0 0.00 0.00 0.00 71 1028.7
20171022004531 59 0 0.0 0.0 0.00 0.00 0.00 71 1028.5
20171022003631 59 0 0.0 0.0 0.00 0.00 0.00 69 1028.6
20171022002731 60 0 0.0 0.0 0.00 0.00 0.00 67 1028.6
20171022001831 60 0 0.0 0.0 0.00 0.00 0.00 67 1028.5
20171022000931 61 0 0.0 0.0 0.00 0.00 0.00 63 1028.5
20171022000031 62 0 0.0 0.0 0.00 0.00 0.00 61 1028.6
20171021235131 62 0 0.0 0.0 0.00 0.00 0.00 59 1028.5
20171021234231 62 0 0.0 0.0 0.00 0.00 0.00 57 1028.5
20171021233331 64 0 0.0 0.0 0.00 0.00 0.00 56 1028.4
20171021232431 65 0 0.0 0.0 0.00 0.00 0.00 52 1028.4
20171021231531 65 0 0.0 0.0 0.00 0.00 0.00 51 1028.3
20171021230631 66 0 0.0 0.0 0.00 0.00 0.00 49 1028.3
20171021225731 66 0 0.0 0.0 0.00 0.00 0.00 49 1028.2
20171021224831 66 227 0.0 1.0 0.00 0.00 0.00 49 1028.2
20171021223931 67 227 0.0 1.0 0.00 0.00 0.00 47 1028.1
20171021223031 67 227 0.0 1.0 0.00 0.00 0.00 48 1028.0
20171021222131 68 0 0.0 0.0 0.00 0.00 0.00 51 1027.9
20171021221231 68 0 0.0 0.0 0.00 0.00 0.00 50 1027.9
20171021220331 69 227 0.0 1.0 0.00 0.00 0.00 51 1027.8
20171021215431 70 227 0.0 1.0 0.00 0.00 0.00 49 1027.7
20171021214531 70 227 0.0 1.0 0.00 0.00 0.00 47 1027.7
20171021213631 72 227 0.0 1.0 0.00 0.00 0.00 45 1027.6
20171021212731 72 227 0.0 1.0 0.00 0.00 0.00 43 1027.6
20171021211831 73 227 0.0 1.0 0.00 0.00 0.00 42 1027.5
20171021210931 74 227 0.0 1.0 0.00 0.00 0.00 40 1027.5
20171021210031 75 227 0.0 1.0 0.00 0.00 0.00 42 1027.4
20171021205131 75 227 0.0 1.0 0.00 0.00 0.00 39 1027.4
20171021204231 76 227 0.0 1.0 0.00 0.00 0.00 38 1027.3
20171021203331 76 227 0.0 1.0 0.00 0.00 0.00 40 1027.3
20171021202431 77 229 0.0 2.0 0.00 0.00 0.00 38 1027.3
20171021201531 78 242 0.0 4.0 0.00 0.00 0.00 36 1027.1
20171021200631 77 192 1.0 2.0 0.00 0.00 0.00 35 1027.1
20171021195731 77 243 1.0 4.0 0.00 0.00 0.00 34 1027.1
20171021194831 76 147 1.0 3.0 0.00 0.00 0.00 34 1027.0
20171021193931 77 239 2.0 5.0 0.00 0.00 0.00 32 1027.1
20171021193031 77 231 1.0 5.0 0.00 0.00 0.00 31 1027.2
20171021192131 78 267 0.0 2.0 0.00 0.00 0.00 30 1027.2
20171021191231 77 268 1.0 3.0 0.00 0.00 0.00 30 1027.2
20171021190331 76 227 1.0 3.0 0.00 0.00 0.00 32 1027.2
20171021185431 76 105 1.0 7.0 0.00 0.00 0.00 32 1027.2
20171021184531 76 280 0.0 2.0 0.00 0.00 0.00 33 1027.3
20171021183631 76 120 0.0 3.0 0.00 0.00 0.00 32 1027.4
20171021182731 75 250 1.0 4.0 0.00 0.00 0.00 33 1027.4
20171021181831 76 192 1.0 3.0 0.00 0.00 0.00 34 1027.5
20171021180931 75 154 1.0 4.0 0.00 0.00 0.00 33 1027.5
20171021180031 76 232 1.0 3.0 0.00 0.00 0.00 35 1027.5
20171021175131 74 265 1.0 6.0 0.00 0.00 0.00 37 1027.6
20171021174231 74 263 3.0 7.0 0.00 0.00 0.00 36 1027.8
20171021173331 75 154 1.0 4.0 0.00 0.00 0.00 33 1027.9
20171021172431 76 207 0.0 2.0 0.00 0.00 0.00 36 1028.0
20171021171531 75 261 1.0 3.0 0.00 0.00 0.00 36 1028.1
20171021170631 74 247 1.0 4.0 0.00 0.00 0.00 38 1028.3
20171021165731 74 209 1.0 5.0 0.00 0.00 0.00 40 1028.4
20171021164831 73 88 1.0 3.0 0.00 0.00 0.00 44 1028.5
20171021163931 72 164 1.0 4.0 0.00 0.00 0.00 43 1028.5
20171021163031 72 104 1.0 2.0 0.00 0.00 0.00 44 1028.6
20171021162131 71 118 1.0 4.0 0.00 0.00 0.00 42 1028.6
20171021161231 70 249 1.0 3.0 0.00 0.00 0.00 43 1028.6
20171021160331 70 244 1.0 3.0 0.00 0.00 0.00 46 1028.7
20171021155431 69 0 0.0 0.0 0.00 0.00 0.00 48 1028.8
20171021154531 69 0 0.0 0.0 0.00 0.00 0.00 50 1028.9
20171021153631 68 0 0.0 0.0 0.00 0.00 0.00 50 1028.9
20171021152731 67 132 0.0 2.0 0.00 0.00 0.00 53 1028.8
20171021151831 67 0 0.0 0.0 0.00 0.00 0.00 55 1028.9
20171021150931 66 0 0.0 0.0 0.00 0.00 0.00 54 1028.9
20171021150031 65 0 0.0 0.0 0.00 0.00 0.00 57 1029.0
20171021145131 65 0 0.0 0.0 0.00 0.00 0.00 60 1029.0
20171021144231 64 0 0.0 0.0 0.00 0.00 0.00 63 1029.0
20171021143331 63 0 0.0 0.0 0.00 0.00 0.00 62 1029.0
20171021142431 62 0 0.0 0.0 0.00 0.00 0.00 70 1028.9
20171021141531 61 0 0.0 0.0 0.00 0.00 0.00 65 1028.8
20171021140631 60 0 0.0 0.0 0.00 0.00 0.00 70 1028.8
20171021135731 60 0 0.0 0.0 0.00 0.00 0.00 69 1028.8
20171021134831 58 0 0.0 0.0 0.00 0.00 0.00 70 1028.9
20171021133931 57 0 0.0 0.0 0.00 0.00 0.00 75 1028.9
20171021133031 56 0 0.0 0.0 0.00 0.00 0.00 74 1028.8
20171021132131 55 0 0.0 0.0 0.00 0.00 0.00 76 1028.8
20171021131231 54 0 0.0 0.0 0.00 0.00 0.00 78 1028.8
20171021130331 53 0 0.0 0.0 0.00 0.00 0.00 78 1028.7
20171021125431 53 0 0.0 0.0 0.00 0.00 0.00 82 1028.7
20171021124531 52 0 0.0 0.0 0.00 0.00 0.00 80 1028.5
20171021123631 52 0 0.0 0.0 0.00 0.00 0.00 80 1028.3
20171021122731 52 0 0.0 0.0 0.00 0.00 0.00 80 1028.2
20171021121831 52 0 0.0 0.0 0.00 0.00 0.00 82 1028.0
20171021120931 51 0 0.0 0.0 0.00 0.00 0.00 85 1027.8
20171021120031 51 0 0.0 0.0 0.00 0.00 0.00 84 1027.7
20171021115131 51 0 0.0 0.0 0.00 0.00 0.00 85 1027.6
20171021114231 50 0 0.0 0.0 0.00 0.00 0.00 83 1027.5
20171021113331 50 0 0.0 0.0 0.00 0.00 0.00 85 1027.5
20171021112431 50 0 0.0 0.0 0.00 0.00 0.00 85 1027.4
20171021111531 50 0 0.0 0.0 0.00 0.00 0.00 85 1027.2
20171021110631 50 0 0.0 0.0 0.00 0.00 0.00 86 1027.2
20171021105731 50 0 0.0 0.0 0.00 0.00 0.00 86 1027.2
20171021104831 49 0 0.0 0.0 0.00 0.00 0.00 88 1027.2
20171021103931 49 0 0.0 0.0 0.00 0.00 0.00 87 1027.1
20171021103031 50 0 0.0 0.0 0.00 0.00 0.00 88 1027.0
20171021102131 50 0 0.0 0.0 0.00 0.00 0.00 88 1026.9
20171021101231 50 0 0.0 0.0 0.00 0.00 0.00 87 1026.8
20171021100331 50 0 0.0 0.0 0.00 0.00 0.00 86 1026.8
20171021095431 50 0 0.0 0.0 0.00 0.00 0.00 86 1026.7
20171021094531 50 0 0.0 0.0 0.00 0.00 0.00 85 1026.6
20171021093631 50 0 0.0 0.0 0.00 0.00 0.00 87 1026.5
20171021092731 50 0 0.0 0.0 0.00 0.00 0.00 84 1026.5
20171021091831 50 0 0.0 0.0 0.00 0.00 0.00 86 1026.3
20171021090931 50 0 0.0 0.0 0.00 0.00 0.00 87 1026.3
20171021090031 50 0 0.0 0.0 0.00 0.00 0.00 87 1026.3
20171021085131 50 0 0.0 0.0 0.00 0.00 0.00 86 1026.2
20171021084231 50 0 0.0 0.0 0.00 0.00 0.00 86 1026.1
20171021083331 50 0 0.0 0.0 0.00 0.00 0.00 83 1026.0
20171021082431 50 0 0.0 0.0 0.00 0.00 0.00 83 1025.9
20171021081531 50 0 0.0 0.0 0.00 0.00 0.00 85 1025.9
20171021080631 50 0 0.0 0.0 0.00 0.00 0.00 88 1025.9
20171021075731 50 0 0.0 0.0 0.00 0.00 0.00 87 1025.9
20171021074831 50 0 0.0 0.0 0.00 0.00 0.00 88 1025.9
20171021073931 50 0 0.0 0.0 0.00 0.00 0.00 87 1026.0
20171021073031 50 0 0.0 0.0 0.00 0.00 0.00 86 1026.1
20171021072131 50 0 0.0 0.0 0.00 0.00 0.00 87 1025.9
20171021071231 50 0 0.0 0.0 0.00 0.00 0.00 86 1026.0
20171021070331 50 0 0.0 0.0 0.00 0.00 0.00 86 1026.1
20171021065431 51 0 0.0 0.0 0.00 0.00 0.00 85 1026.0
20171021064531 51 0 0.0 0.0 0.00 0.00 0.00 87 1026.0
20171021063631 51 0 0.0 0.0 0.00 0.00 0.00 86 1026.0
20171021062731 51 0 0.0 0.0 0.00 0.00 0.00 86 1026.1
20171021061831 51 0 0.0 0.0 0.00 0.00 0.00 87 1026.1
20171021060931 51 0 0.0 0.0 0.00 0.00 0.00 86 1026.3
20171021060031 51 0 0.0 0.0 0.00 0.00 0.00 85 1026.2
20171021055131 51 0 0.0 0.0 0.00 0.00 0.00 85 1026.2
20171021054231 51 0 0.0 0.0 0.00 0.00 0.00 85 1026.2
20171021053331 51 0 0.0 0.0 0.00 0.00 0.00 85 1026.2
20171021052431 52 0 0.0 0.0 0.00 0.00 0.00 85 1026.2
20171021051531 52 0 0.0 0.0 0.00 0.00 0.00 82 1026.2
20171021050631 52 0 0.0 0.0 0.00 0.00 0.00 82 1026.1
20171021045731 52 0 0.0 0.0 0.00 0.00 0.00 82 1026.1
20171021044831 52 0 0.0 0.0 0.00 0.00 0.00 83 1026.0
20171021043931 52 0 0.0 0.0 0.00 0.00 0.00 82 1025.9
20171021043031 53 0 0.0 0.0 0.00 0.00 0.00 80 1025.9
20171021042131 54 0 0.0 0.0 0.00 0.00 0.00 78 1025.8